Harlan, IA

2:38 PM CST on December 15, 2019 (GMT -0600)
Harlan Municipal

Weather History for KHNR - October, 2019

Change the Weather History Date:

Tuesday, October 1, 2019

  Actual Average Record
Temperature  
Mean Temperature 65 °F -  
Max Temperature 75 °F 73 °F 91 °F (2006)
Min Temperature 55 °F 46 °F 26 °F (2003)
Growing Degree Days 15 (Base 50)    
Moisture  
Dew Point 66 °F    
Average Humidity 98    
Maximum Humidity 100    
Minimum Humidity 89    
Precipitation  
Precipitation 1.12 in - - ()
Sea Level Pressure  
Sea Level Pressure 29.86 in    
Wind  
Wind Speed 5 mph ()    
Max Wind Speed 12 mph    
Max Gust Speed 31 mph    
Visibility 7.4 miles    
Events Fog    
Averages and records for this station are not official NWS values.
T = Trace of Precipitation, MM = Missing Value Source: Averaged Metar Reports

Daily Weather History Graph

Daily Weather History Graph

Search for Another Location

Airport or City:

Astronomy

Oct. 01, 2019 Rise Set
Actual Time 7:17 AM CDT 7:03 PM CDT
Civil Twilight 6:50 AM CDT 7:31 PM CDT
Nautical Twilight 6:18 AM CDT 8:03 PM CDT
Astronomical Twilight 5:45 AM CDT 8:35 PM CDT
Moon 10:37 AM CDT (10/1) 9:14 PM CDT (10/1)
Length of Visible Light 12h 40m
Length of Day
11h 45m
Waxing Crescent, 12% of the Moon is Illuminated
Oct 1
Waxing Crescent
Oct 5
First Quarter
Oct 13
Full
Oct 21
Last Quarter
Oct 27
New

Hourly Weather History & Observations

Time (CDT) Temp. Dew Point Humidity Pressure Visibility Wind Dir Wind Speed Gust Speed Precip Events Conditions
12:15 AM 75.2 °F 71.6 °F 89% 29.84 in 10.0 mi SSW 8.1 mph - N/A   Mostly Cloudy
12:35 AM 75.2 °F 71.6 °F 89% 29.85 in 10.0 mi SW 4.6 mph - N/A   Partly Cloudy
12:55 AM 73.4 °F 71.6 °F 94% 29.86 in 10.0 mi SW 5.8 mph - N/A   Clear
1:15 AM 73.4 °F 71.6 °F 94% 29.86 in 10.0 mi Calm Calm - N/A   Partly Cloudy
1:35 AM 71.6 °F 71.6 °F 100% 29.86 in 10.0 mi West 5.8 mph - N/A   Scattered Clouds
1:55 AM 71.6 °F 71.6 °F 100% 29.86 in 10.0 mi Calm Calm - N/A   Scattered Clouds
2:15 AM 71.6 °F 69.8 °F 94% 29.86 in 10.0 mi NW 8.1 mph - N/A   Partly Cloudy
2:35 AM 69.8 °F 68.0 °F 94% 29.86 in 10.0 mi Calm Calm - N/A   Clear
2:55 AM 69.8 °F 68.0 °F 94% 29.86 in 10.0 mi Calm Calm - N/A   Clear
3:15 AM 69.8 °F 68.0 °F 94% 29.86 in 10.0 mi Calm Calm - N/A   Mostly Cloudy
3:35 AM 69.8 °F 69.8 °F 100% 29.87 in 10.0 mi North 5.8 mph - N/A   Overcast
3:55 AM 69.8 °F 68.0 °F 94% 29.87 in 10.0 mi North 4.6 mph 12.7 mph N/A   Overcast
4:15 AM 69.8 °F 68.0 °F 94% 29.87 in 10.0 mi NNE 9.2 mph - N/A   Overcast
4:35 AM 69.8 °F 68.0 °F 94% 29.87 in 10.0 mi NNE 8.1 mph - N/A   Overcast
4:55 AM 69.8 °F 68.0 °F 94% 29.87 in 10.0 mi Calm Calm - N/A   Overcast
5:15 AM 69.8 °F 68.0 °F 94% 29.86 in 10.0 mi East 3.5 mph - N/A   Overcast
5:35 AM 69.8 °F 68.0 °F 94% 29.86 in 10.0 mi Calm Calm - N/A   Overcast
5:55 AM 69.8 °F 69.8 °F 100% 29.85 in 4.0 mi SSE 4.6 mph - 0.03 in   Overcast
6:15 AM 69.8 °F 69.8 °F 100% 29.86 in 4.0 mi Calm Calm - N/A   Overcast
6:35 AM 69.8 °F 69.8 °F 100% 29.86 in 7.0 mi Calm Calm - N/A   Overcast
6:55 AM 69.8 °F 69.8 °F 100% 29.86 in 9.0 mi Calm Calm - 0.07 in   Overcast
7:15 AM 71.6 °F 71.6 °F 100% 29.87 in 10.0 mi Calm Calm - N/A   Overcast
7:35 AM 71.6 °F 71.6 °F 100% 29.87 in 9.0 mi South 4.6 mph - N/A   Overcast
7:55 AM 71.6 °F 71.6 °F 100% 29.87 in 9.0 mi South 5.8 mph - N/A   Overcast
8:15 AM 73.4 °F 73.4 °F 100% 29.87 in 9.0 mi SSW 5.8 mph - N/A   Overcast
8:35 AM 73.4 °F 73.4 °F 100% 29.87 in 8.0 mi SSW 6.9 mph - N/A   Overcast
8:55 AM 73.4 °F 73.4 °F 100% 29.88 in 9.0 mi SSW 5.8 mph - N/A   Overcast
9:15 AM 73.4 °F 73.4 °F 100% 29.88 in 9.0 mi SSW 5.8 mph - N/A   Overcast
9:35 AM 71.6 °F 71.6 °F 100% 29.87 in 6.0 mi North 3.5 mph - N/A   Overcast
9:55 AM 68.0 °F 68.0 °F 100% 29.88 in 7.0 mi North 9.2 mph - N/A   Mostly Cloudy
10:15 AM 66.2 °F 66.2 °F 100% 29.89 in 9.0 mi NNE 10.4 mph - N/A   Overcast
10:35 AM 64.4 °F 64.4 °F 100% 29.89 in 8.0 mi NNE 9.2 mph - N/A   Overcast
10:55 AM 64.4 °F 64.4 °F 100% 29.89 in 9.0 mi NNE 9.2 mph - N/A   Mostly Cloudy
11:15 AM 64.4 °F 64.4 °F 100% 29.89 in 10.0 mi NNE 8.1 mph - N/A   Mostly Cloudy
11:35 AM 66.2 °F 66.2 °F 100% 29.90 in 10.0 mi NNE 4.6 mph - N/A   Overcast
11:55 AM 66.2 °F 66.2 °F 100% 29.90 in 10.0 mi North 9.2 mph - N/A   Mostly Cloudy
1:15 PM 64.4 °F 64.4 °F 100% 29.89 in 10.0 mi North 8.1 mph - N/A   Mostly Cloudy
1:35 PM 64.4 °F 64.4 °F 100% 29.88 in 10.0 mi North 4.6 mph - N/A   Scattered Clouds
1:55 PM 64.4 °F 64.4 °F 100% 29.86 in 10.0 mi NNE 4.6 mph - N/A   Scattered Clouds
2:15 PM 66.2 °F 64.4 °F 94% 29.86 in 10.0 mi North 4.6 mph - N/A   Mostly Cloudy
2:35 PM 64.4 °F 64.4 °F 100% 29.86 in 10.0 mi North 6.9 mph - N/A   Mostly Cloudy
2:55 PM 64.4 °F 64.4 °F 100% 29.83 in 10.0 mi NNE 11.5 mph - N/A   Mostly Cloudy
3:15 PM 64.4 °F 64.4 °F 100% 29.83 in 4.0 mi North 10.4 mph - N/A   Mostly Cloudy
3:35 PM 62.6 °F 62.6 °F 100% 29.84 in 1.5 mi NE 6.9 mph - N/A   Mostly Cloudy
3:55 PM - - N/A% 29.83 in 0.5 mi NNW 11.5 mph 31.1 mph 0.39 in Fog Fog
4:15 PM - - N/A% 29.83 in 4.0 mi North 9.2 mph - N/A   Overcast
4:55 PM 60.8 °F 60.8 °F 100% 29.85 in 3.0 mi ENE 4.6 mph - 0.16 in   Overcast
5:15 PM 60.8 °F 60.8 °F 100% 29.85 in 3.0 mi NNE 6.9 mph - N/A   Overcast
5:35 PM 60.8 °F 60.8 °F 100% 29.85 in 3.0 mi NNE 5.8 mph - N/A   Overcast
5:55 PM 60.8 °F 60.8 °F 100% 29.83 in 3.0 mi NE 5.8 mph - 0.11 in   Mostly Cloudy
6:15 PM 60.8 °F 60.8 °F 100% 29.84 in 8.0 mi NE 8.1 mph - N/A   Mostly Cloudy
6:35 PM 60.8 °F 60.8 °F 100% 29.84 in 4.0 mi NE 3.5 mph - N/A   Overcast
6:55 PM - - N/A% 29.86 in 3.0 mi North 4.6 mph - 0.05 in   Overcast
7:15 PM 60.8 °F 60.8 °F 100% 29.85 in 5.0 mi NNE 6.9 mph - N/A   Overcast
7:35 PM 60.8 °F 60.8 °F 100% 29.83 in 9.0 mi NNE 9.2 mph - N/A   Overcast
7:55 PM 60.8 °F 60.8 °F 100% 29.85 in 10.0 mi NNE 8.1 mph - 0.02 in   Overcast
8:15 PM 60.8 °F 60.8 °F 100% 29.85 in 7.0 mi NNE 8.1 mph - N/A   Overcast
8:35 PM 60.8 °F 60.8 °F 100% 29.85 in 6.0 mi North 8.1 mph - N/A   Overcast
8:55 PM 59.0 °F 59.0 °F 100% 29.84 in 4.0 mi NNE 9.2 mph - 0.03 in   Overcast
9:15 PM 59.0 °F 59.0 °F 100% 29.84 in 5.0 mi NE 4.6 mph - N/A   Overcast
9:35 PM 59.0 °F 59.0 °F 100% 29.86 in 2.0 mi NNE 6.9 mph - N/A   Mostly Cloudy
9:55 PM 59.0 °F 59.0 °F 100% 29.85 in 2.0 mi North 9.2 mph - 0.18 in   Overcast
10:15 PM 57.2 °F 57.2 °F 100% 29.88 in 4.0 mi NNW 5.8 mph - N/A   Overcast
10:35 PM 57.2 °F 57.2 °F 100% 29.89 in 5.0 mi North 8.1 mph - N/A   Overcast
10:55 PM 57.2 °F 57.2 °F 100% 29.90 in 8.0 mi NNW 8.1 mph - 0.07 in   Overcast
11:15 PM 57.2 °F 57.2 °F 100% 29.90 in 3.0 mi North 9.2 mph - N/A   Mostly Cloudy
11:35 PM 55.4 °F 55.4 °F 100% 29.90 in 7.0 mi North 9.2 mph - N/A   Mostly Cloudy
11:55 PM 55.4 °F 55.4 °F 100% 29.91 in 4.0 mi NNW 9.2 mph - 0.01 in   Overcast